Location: Newark
(25.6108°S, 54.5803°W)
Time: 10:00:28
(UTC+00:00)

deb Explorer IX - Pass Details

Date: 27 October 2020
Orbit: 538 x 1104 km, 38.8° (Epoch: 23 November)

Event Time Altitude Azimuth Distance (km) Brightness Sun altitude
Rises 18:03:04 0° 339° (NNW) 3,667 ? 50.2°
Reaches altitude 10° 18:06:36 10° 355° (N) 2,621 ? 49.4°
Maximum altitude 18:10:54 19° 39° (NE) 1,906 ? 48.5°
Drops below altitude 10° 18:14:48 10° 83° (E) 2,352 ? 47.6°
Sets 18:17:45 0° 101° (E) 3,174 ? 47.0°
